Location: French Creek State Gamelands
(40.1750°N, 75.7969°W)
Time: 20:02:37
(UTC-04:00)

ISS - All Passes

Search period start: 24 March 2017 00:00
Search period end: 03 April 2017 00:00
Orbit: 399 x 409 km, 51.6° (Epoch: 25 March)

Date Brightness Start Highest point End Pass type
(mag) Time Alt. Az. Time Alt. Az. Time Alt. Az.
24 Mar - 01:33:42 10° NNW 01:34:52 11° N 01:36:02 10° NNE night (unlit)
24 Mar - 03:10:03 10° NNW 03:12:22 18° NNE 03:14:42 10° ENE night (unlit)
24 Mar - 04:45:57 10° NW 04:49:16 83° NE 04:52:34 10° SE visible
24 Mar - 06:24:54 10° WSW 06:25:16 10° SW 06:25:37 10° SW visible
24 Mar - 21:25:25 10° SSW 21:28:23 33° SE 21:31:22 10° ENE night (unlit)
24 Mar - 23:01:56 10° W 23:04:51 29° NNW 23:07:48 10° NE night (unlit)
25 Mar - 00:40:43 10° NNW 00:42:09 12° N 00:43:35 10° NNE night (unlit)
25 Mar - 02:17:54 10° NNW 02:19:44 14° NNE 02:21:33 10° NE night (unlit)
25 Mar - 03:53:40 10° NW 03:56:51 44° NNE 04:00:02 10° ESE night (unlit)
25 Mar - 05:30:38 10° W 05:33:07 20° SW 05:35:35 10° S visible
25 Mar - 20:33:57 10° S 20:36:11 17° SE 20:38:24 10° E visible
25 Mar - 22:09:12 10° WSW 22:12:23 49° NNW 22:15:35 10° NE visible
25 Mar - 23:47:33 10° NW 23:49:27 14° NNW 23:51:22 10° NNE night (unlit)
26 Mar - 01:25:40 10° NNW 01:27:01 12° N 01:28:24 10° NNE night (unlit)
26 Mar - 03:01:27 10° NW 03:04:21 27° NNE 03:07:15 10° E night (unlit)
26 Mar - 04:37:47 10° WNW 04:40:53 38° SW 04:43:58 10° SSE night (unlit)
26 Mar - 21:16:42 10° SW 21:19:58 86° SE 21:23:15 10° NE visible
26 Mar - 22:54:25 10° WNW 22:56:47 18° NNW 22:59:11 10° NNE night (unlit)
27 Mar - 00:33:10 10° NNW 00:34:17 11° N 00:35:25 10° NNE night (unlit)
27 Mar - 02:09:16 10° NNW 02:11:45 19° NNE 02:14:14 10° ENE night (unlit)
27 Mar - 03:45:15 10° NW 03:48:33 78° SW 03:51:51 10° SE night (unlit)
27 Mar - 20:24:32 10° SSW 20:27:37 42° SE 20:30:44 10° ENE visible
27 Mar - 22:01:23 10° W 22:04:11 26° NNW 22:07:00 10° NNE visible
27 Mar - 23:40:14 10° NNW 23:41:32 12° N 23:42:49 10° NNE night (unlit)
28 Mar - 01:17:06 10° NNW 01:19:06 15° NNE 01:21:05 10° NE night (unlit)
28 Mar - 02:52:54 10° NW 02:56:07 54° NNE 02:59:22 10° ESE night (unlit)
28 Mar - 04:30:12 10° W 04:32:18 16° SW 04:34:23 10° S night (unlit)
28 Mar - 19:32:48 10° S 19:35:20 21° SE 19:37:53 10° E daylight
28 Mar - 21:08:32 10° WSW 21:11:37 40° NNW 21:14:45 10° NE visible
28 Mar - 22:47:04 10° NW 22:48:47 13° NNW 22:50:30 10° NNE visible
29 Mar - 00:24:52 10° NNW 00:26:21 12° N 00:27:51 10° NE night (unlit)
29 Mar - 02:00:37 10° NW 02:03:37 32° NNE 02:06:37 10° E night (unlit)
29 Mar - 03:37:07 10° WNW 03:40:03 30° SW 03:42:59 10° SSE night (unlit)
29 Mar - 18:42:12 10° SE 18:43:08 11° SE 18:44:05 10° ESE daylight
29 Mar - 20:15:54 10° WSW 20:19:09 76° NW 20:22:25 10° NE visible
29 Mar - 21:53:51 10° WNW 21:56:04 17° NNW 21:58:17 10° NNE visible
29 Mar - 23:32:26 10° NNW 23:33:35 11° N 23:34:44 10° NNE night (unlit)
30 Mar - 01:08:24 10° NNW 01:11:01 21° NNE 01:13:38 10° ENE night (unlit)
30 Mar - 02:44:27 10° WNW 02:47:43 61° SW 02:50:58 10° SE night (unlit)
30 Mar - 19:23:34 10° SW 19:26:44 53° SE 19:29:56 10° ENE daylight
30 Mar - 21:00:44 10° WNW 21:03:24 23° NNW 21:06:04 10° NNE visible
30 Mar - 22:39:37 10° NNW 22:40:48 11° N 22:41:58 10° NNE visible
31 Mar - 00:16:10 10° NNW 00:18:20 16° NNE 00:20:29 10° ENE night (unlit)
31 Mar - 01:52:00 10° NW 01:55:17 67° NE 01:58:33 10° ESE night (unlit)
31 Mar - 03:29:49 10° WSW 03:31:21 13° SW 03:32:53 10° SSW night (unlit)
31 Mar - 18:31:37 10° SSW 18:34:24 26° SE 18:37:12 10° ENE daylight
31 Mar - 20:07:46 10° W 20:10:47 34° NNW 20:13:49 10° NE visible
31 Mar - 21:46:27 10° NW 21:48:00 13° N 21:49:33 10° NNE visible
31 Mar - 23:23:56 10° NNW 23:25:34 13° N 23:27:13 10° NE visible
01 Apr - 00:59:39 10° NW 01:02:45 37° NNE 01:05:51 10° E night (unlit)
01 Apr - 02:36:22 10° WNW 02:39:06 24° SW 02:41:50 10° S night (unlit)
01 Apr - 17:40:24 10° SSE 17:42:08 14° SE 17:43:53 10° E daylight
01 Apr - 19:15:01 10° WSW 19:18:14 60° NW 19:21:29 10° NE daylight
01 Apr - 20:53:11 10° NW 20:55:14 15° NNW 20:57:17 10° NNE visible
01 Apr - 22:31:34 10° NNW 22:32:46 12° N 22:34:00 10° NNE visible
02 Apr - 00:07:23 10° NNW 00:10:08 24° NNE 00:12:53 10° E night (unlit)
02 Apr - 01:43:34 10° WNW 01:46:46 48° SW 01:49:56 10° SSE night (unlit)
02 Apr - 18:22:32 10° SW 18:25:45 68° SE 18:29:00 10° ENE daylight
02 Apr - 19:59:58 10° WNW 20:02:29 20° NNW 20:05:02 10° NNE visible
02 Apr - 21:38:51 10° NNW 21:39:57 11° N 21:41:02 10° NNE visible
02 Apr - 23:15:08 10° NNW 23:17:26 17° NNE 23:19:44 10° ENE visible
